SWA657 KPSP-KSAN

Flight info

Callsign SWA657
Flight time N/A
Altitude 23000
Route HWRRD1 TRM SECAN IPL LUCKI1
Aircraft B38M/M-SDE1FGHILORVWXY/HB1

Departure

Time 2026-05-08 19:47
Airport Palm Springs International Airport (KPSP)

Arrival

Time N/A
Airport San Diego International Airport (KSAN)
Time Latitude Longitude Altitude Speed Heading
2026-05-08 19:30 33.82375 -116.50696 430 ft 0 kts 169°
2026-05-08 19:41 33.82396 -116.50701 416 ft 4 kts 169°
2026-05-08 19:41 33.82417 -116.50706 424 ft 4 kts 172°
2026-05-08 19:41 33.82442 -116.50704 425 ft 4 kts 204°
2026-05-08 19:41 33.82464 -116.50694 420 ft 4 kts 180°
2026-05-08 19:42 33.82477 -116.50703 427 ft 4 kts 97°
2026-05-08 19:42 33.82479 -116.50733 419 ft 2 kts 94°
2026-05-08 19:42 33.82479 -116.50735 430 ft 1 kts 94°
2026-05-08 19:44 33.82479 -116.50733 430 ft 0 kts 94°
2026-05-08 19:44 33.82480 -116.50723 420 ft 4 kts 80°
2026-05-08 19:44 33.82501 -116.50679 422 ft 10 kts 50°
2026-05-08 19:44 33.82524 -116.50646 430 ft 8 kts 75°
2026-05-08 19:45 33.82483 -116.50534 427 ft 19 kts 140°
2026-05-08 19:45 33.82361 -116.50425 410 ft 25 kts 143°
2026-05-08 19:45 33.82210 -116.50294 415 ft 28 kts 145°
2026-05-08 19:45 33.82042 -116.50149 411 ft 31 kts 142°
2026-05-08 19:46 33.81880 -116.50001 410 ft 28 kts 138°
2026-05-08 19:46 33.81887 -116.49816 409 ft 23 kts 18°
2026-05-08 19:46 33.82333 -116.50205 412 ft 101 kts 322°
2026-05-08 19:47 33.83078 -116.50871 460 ft 161 kts 323°
2026-05-08 19:47 33.84066 -116.51751 841 ft 192 kts 323°
2026-05-08 19:47 33.85187 -116.52750 1635 ft 202 kts 324°
2026-05-08 19:47 33.86386 -116.53791 2211 ft 228 kts 324°
2026-05-08 19:48 33.87741 -116.54941 2913 ft 248 kts 325°
2026-05-08 19:48 33.89248 -116.56129 3685 ft 263 kts 335°
2026-05-08 19:48 33.91033 -116.56507 4679 ft 270 kts
2026-05-08 19:48 33.92789 -116.55702 5537 ft 276 kts 36°
2026-05-08 19:49 33.94230 -116.54125 6472 ft 285 kts 42°
2026-05-08 19:49 33.95577 -116.52354 7389 ft 290 kts 59°
2026-05-08 19:49 33.96228 -116.50065 8366 ft 292 kts 86°